TimeCDT,TemperatureF,Dew PointF,Humidity,Sea Level PressureIn,VisibilityMPH,Wind Direction,Wind SpeedMPH,Gust SpeedMPH,PrecipitationIn,Events,Conditions,WindDirDegrees,DateUTC
12:53 AM,57.9,52.0,81,30.14,10.0,South,5.8,-,N/A,,Clear,170,2013-08-18 05:53:00
1:53 AM,57.0,52.0,83,30.14,10.0,SSE,6.9,-,N/A,,Clear,160,2013-08-18 06:53:00
2:53 AM,55.9,51.1,84,30.13,10.0,SE,3.5,-,N/A,,Clear,140,2013-08-18 07:53:00
3:53 AM,53.1,48.9,86,30.13,10.0,Calm,Calm,-,N/A,,Clear,0,2013-08-18 08:53:00
4:53 AM,52.0,48.0,86,30.13,10.0,Calm,Calm,-,N/A,,Clear,0,2013-08-18 09:53:00
5:53 AM,48.9,46.0,90,30.15,10.0,ESE,3.5,-,N/A,,Clear,110,2013-08-18 10:53:00
6:53 AM,50.0,48.0,93,30.16,5.0,East,4.6,-,N/A,,Clear,100,2013-08-18 11:53:00
7:53 AM,59.0,53.1,81,30.15,10.0,SSE,4.6,-,N/A,,Clear,160,2013-08-18 12:53:00
8:53 AM,68.0,55.9,65,30.14,10.0,South,6.9,-,N/A,,Clear,170,2013-08-18 13:53:00
9:53 AM,73.0,57.0,57,30.14,10.0,South,10.4,-,N/A,,Clear,180,2013-08-18 14:53:00
10:53 AM,75.9,55.0,48,30.14,10.0,SSW,12.7,-,N/A,,Clear,200,2013-08-18 15:53:00
11:53 AM,78.1,53.1,42,30.13,10.0,South,17.3,23.0,N/A,,Clear,180,2013-08-18 16:53:00
12:53 PM,79.0,52.0,39,30.11,10.0,SSW,13.8,-,N/A,,Clear,210,2013-08-18 17:53:00
1:53 PM,80.1,52.0,38,30.09,10.0,SSW,15.0,20.7,N/A,,Clear,200,2013-08-18 18:53:00
2:53 PM,80.1,52.0,38,30.09,10.0,SSW,13.8,21.9,N/A,,Clear,200,2013-08-18 19:53:00
3:53 PM,81.0,52.0,36,30.08,10.0,SSW,13.8,-,N/A,,Clear,200,2013-08-18 20:53:00
4:53 PM,80.1,53.1,39,30.07,10.0,South,13.8,-,N/A,,Clear,190,2013-08-18 21:53:00
5:53 PM,80.1,54.0,40,30.06,10.0,SSW,12.7,-,N/A,,Clear,200,2013-08-18 22:53:00
6:53 PM,78.1,55.0,45,30.06,10.0,SSW,9.2,-,N/A,,Clear,200,2013-08-18 23:53:00
7:53 PM,71.1,57.9,63,30.05,10.0,South,5.8,-,N/A,,Clear,180,2013-08-19 00:53:00
8:53 PM,64.9,57.9,78,30.05,10.0,South,6.9,-,N/A,,Clear,180,2013-08-19 01:53:00
9:53 PM,64.0,57.0,78,30.05,10.0,South,6.9,-,N/A,,Clear,180,2013-08-19 02:53:00
10:53 PM,63.0,57.0,81,30.04,10.0,South,6.9,-,N/A,,Clear,180,2013-08-19 03:53:00
11:53 PM,63.0,57.0,81,30.04,10.0,South,5.8,-,N/A,,Clear,180,2013-08-19 04:53:00